Status Flugplatz

Der Flugplatz ist offen
PPR Regelung ! PJE !!!

123.15 MHz
RWY 05/23

flüger beizli - Öffnungszeiten
Freitag+Sonntag ab 14:00
Samstag ab 11:00
Bei schönem Wetter öffnen wir früher!

Herzlich willkommen auf der Homepage des Flugplatz Biel-Kappelen

Wir freuen uns über Ihren Besuch auf unserem schönen Flugplatz im Berner Seeland. Ob zu Fuss, per Velo, Motorrad, Auto oder Flugzeug Sie sind uns jederzeit herzlich willkommen.

 

 

 


 

Wetter Kappelen

 


 

[source: ADDS]
METAR
LSZG 262220Z AUTO VRB02KT 9999 SCT060 SCT080 BKN100 16/10 Q1022 =
TAF
TAF LSZG 261425Z 2615/2624 VRB03KT 9999 SCT050 BKN070 =
SR / SS: 03:38 / 19:32 UTC ( 2016-06-27)

 


 

Besucherzähler

HeuteHeute2
Seit BeginnSeit Beginn66575
Guests 3

Flugplatz Biel-Kappelen LSZP - 123.15MHz - 032 384 46 84

Email: Diese E-Mail-Adresse ist vor Spambots geschützt! Zur Anzeige muss JavaScript eingeschaltet sein!
www.lszp.ch
2013 © by mb

Zum Anfang